Regional Weather Roundup
Issued by NWS Sterling, VA

Home | Current Version | Previous Version | Graphics & Text | Print | Product List | Glossary On
Versions: 1 2 3 4 5 6 7 8 9 10 11 12 13 14 15 16 17 18 19 20 21 22 23 24 25 26 27 28 29 30 31 32 33 34 35 36 37 38 39 40 41 42 43 44 45 46 47 48 49 50
000
ASUS41 KLWX 131110
RWRLWX

REGIONAL WEATHER ROUNDUP
NATIONAL WEATHER SERVICE BALTIMORE MD/WASHINGTON DC
600 AM EST SAT FEB 13 2016

Note: "FAIR" indicates few or no clouds below 12,000 feet
with no significant weather and/or obstructions to visibility.
 TC=TEMPERATURE CELSIUS

 * =Non NWS site. Station does not report precipitation (e.g. rain,
    snow, etc.), thunder, or fog.

DCZ001-MDZ009-015-VAZ040>042-051-053>054-131200-
WASHINGTON METRO

CITY           SKY/WX    TMP DP  RH WIND       PRES   REMARKS
WASHINGTON NAT FLURRIES  23   6  48 NW24G32   30.13R WCI   7
DULLES         MOCLDY    20   4  50 W13G25    30.13R WCI   7
ANDREWS AFB    PTCLDY    21  11  65 NW14      30.09R WCI   8
FT BELVOIR     FAIR      22   2  41 NW23G32   30.13R WCI   6
QUANTICO       FAIR      23   2  40 NW10G26   30.16R WCI  12
COLLEGE PARK*  FAIR      23  10  58 W13G22    30.11R WCI  11
LEESBURG*      MOCLDY    23  10  58 NW20G30   30.12R WCI   8
MANASSAS*      FAIR      21   5  49 W16G23    30.15R WCI   7
GAITHERSBURG*  CLEAR     18   5  57 W20       30.11R WCI   1

$$

MDZ006>007-011-014-131200-
BALTIMORE METRO

CITY           SKY/WX    TMP DP  RH WIND       PRES   REMARKS
BWI AIRPORT    PTCLDY    21   5  50 NW14      30.08R WCI   8
MD SCIENCE CTR   N/A     22   3  44 MISG      30.12R
MARTIN STATE   PTCLDY    23   9  54 W22G30    30.09R WCI   8
ANNAPOLIS      CLEAR     23   9  55 W10G24    30.09R WCI  12
FORT MEADE*    PTCLDY    21   9  58 NW10G21   30.13R WCI  10

$$

MDZ012-015-019>023-131200-
MARYLAND EASTERN SHORE

CITY           SKY/WX    TMP DP  RH WIND       PRES   REMARKS
OCEAN CITY     CLOUDY    23  15  71 NW10G17   30.04R WCI  12
SALISBURY      CLOUDY    26  15  63 W10G20    30.04R WCI  16
BAY BRIDGE AP*   N/A     25  10  54 NW17G26   30.10R WCI  11
CAMBRIDGE*     PTCLDY    23  10  58 NW22G32   30.08R WCI   8
EASTON*        CLOUDY   N/A N/A N/A NW20G26   30.11R

$$

MDZ017>025-131200-
SOUTHERN MARYLAND

CITY           SKY/WX    TMP DP  RH WIND       PRES   REMARKS
PATUXENT RIVER CLEAR     24   4  42 NW23G37   30.09R WCI   9
ST INIGOES     PTCLDY    24   7  48 NW17G29   30.10R WCI  11
LEONARDTOWN*   CLEAR     23   3  42 W15G23    30.13R WCI  10

$$

MDZ003>005-131200-
NORTH CENTRAL MARYLAND

CITY           SKY/WX    TMP DP  RH WIND       PRES   REMARKS
FREDERICK*     NOT AVBL
HAGERSTOWN APT CLOUDY    17   3  54 NW17      30.09R WCI   1
WESTMINSTER*   PTCLDY    18  10  73 NW12G21   30.05R WCI   5

$$

MDZ501>502-131200-
WESTERN MARYLAND

CITY           SKY/WX    TMP DP  RH WIND       PRES   REMARKS
OAKLAND*       CLOUDY     3   0  85 NW12G25   29.97R FOG     WCI -13
CUMBERLAND*    CLOUDY    18   7  62 NW16G30   30.20R WCI   3

$$

VAZ025>031-131200-
SHENANDOAH VALLEY

CITY           SKY/WX    TMP DP  RH WIND       PRES   REMARKS
WINCHESTER*    FAIR      19   7  58 NW15      30.11R WCI   5
FRONT ROYAL*   FAIR      19   0  42 NW14G25   30.11R WCI   6
LURAY*         FAIR      18   0  45 NW18G26   30.13R WCI   2
NEW MARKET*    CLOUDY    17  -3  41 NW7       30.13R
STAUNTON*      FAIR      20  -4  34 NW18G28   30.14R WCI   5
WAYNESBORO*    CLOUDY    16  -6  36 NW9G20    30.11R WCI   5

$$

WVZ021-048>050-054>055-131200-
EASTERN WEST VIRGINIA PANHANDLE

CITY           SKY/WX    TMP DP  RH WIND       PRES   REMARKS
MARTINSBURG    CLOUDY    18   5  57 NW14      30.11R WCI   4
PETERSBURG*    CLOUDY    16   2  53 NW8G28    30.17R WCI   5

$$

VAZ036>039-050-131200-
CENTRAL FOOTHILLS

CITY           SKY/WX    TMP DP  RH WIND       PRES   REMARKS
CHARLOTTESVILL FAIR      21  -6  30 NW14G23   30.14R WCI   8
CULPEPER*      FAIR      21   1  42 NW13G23   30.17R WCI   8
ORANGE*        MOCLDY    23   0  36 CALM      30.17R
GORDONSVILLE*  FAIR      21  -3  34 NW3       30.15R
WARRENTON*     FAIR      22   5  49 NW17G25   30.14R WCI   7

$$

VAZ055>057-131200-
NORTH AND CENTRAL PIEDMONT

CITY           SKY/WX    TMP DP  RH WIND       PRES   REMARKS
FREDERICKSBRG* FAIR      23   6  47 NW10G22   30.15R WCI  12
STAFFORD*      FAIR      21   0  40 NW12G20   30.19R WCI   9

$$

NCZ024-NYZ072-PAZ021-071-VAZ022-071-131200-
OTHER REGIONAL OBSERVATIONS

CITY           SKY/WX    TMP DP  RH WIND       PRES   REMARKS
NEW YORK CITY  CLEAR     21  11  65 W8        29.91R WCI  11
PHILADELPHIA   PTCLDY    22   8  55 W18G26    30.01R WCI   7
PITTSBURGH     LGT SNOW   7  -1  70 NW21G30   30.20R BLWGSNOWWCI -13
ROANOKE        FAIR      19  -1  41 NW18G30   30.17R WCI   4
RICHMOND       FAIR      25  10  53 NW20G28   30.14R WCI  11
RALEIGH        PTCLDY    32   9  38 NW7       30.15R

$$

ANZ530>537-131200-
MARINE OBSERVATIONS

STATION/POSITION TIME  TEMP    WIND        PRES
                       AIR SEA DIR/SP/G
                 (UTC) (F)     (DEG/KT/KT) (MB)
THOMAS PT LIGHT  1100   24 36  310/ 24/ 31 1019.2R
BALT KEY BRIDGE  1000   24     280/ 21/ 26 1017.4R
COVE POINT       1000   26     330/ 15/ 23 1018.1R
LEWISETTA        1000   26 37  340/ 18/ 24 1018.3R
SOLOMONS ISLAND  1000   26 39  290/ 13/ 19   N/A
PINEY POINT      1000          330/ 30/ 34   N/A

$$




USA.gov is the U.S. government's official web portal to all federal, state and local government web resources and services.